| time (UTC) | temp C | wind direction | speed KPH | gust KPH | rain 1hr cm | rain 24hr cm | rain mn cm | humidity % | barometer mb |
| 20260509094005 | 19 | 138 | 12.9 | 22.5 | 0.00 | 0.81 | 0.64 | 67 | 996.3 |
| 20260509093005 | 18 | 168 | 12.9 | 14.5 | 0.00 | 0.81 | 0.64 | 71 | 996.5 |
| 20260509092004 | 18 | 158 | 11.3 | 24.1 | 0.00 | 0.81 | 0.64 | 70 | 996.5 |
| 20260509091005 | 18 | 141 | 9.7 | 19.3 | 0.00 | 0.81 | 0.64 | 74 | 996.6 |
| 20260509090005 | 18 | 193 | 4.8 | 12.9 | 0.03 | 0.81 | 0.64 | 78 | 996.5 |
| 20260509085004 | 17 | 163 | 9.7 | 14.5 | 0.03 | 0.81 | 0.64 | 81 | 996.5 |
| 20260509083005 | 16 | 150 | 14.5 | 16.1 | 0.05 | 0.81 | 0.64 | 88 | 996.5 |
| 20260509082004 | 15 | 90 | 8.0 | 12.9 | 0.05 | 0.81 | 0.64 | 92 | 996.5 |
| 20260509081005 | 15 | 138 | 3.2 | 9.7 | 0.08 | 0.81 | 0.64 | 92 | 996.7 |
| 20260509080004 | 15 | 147 | 4.8 | 14.5 | 0.08 | 0.79 | 0.61 | 97 | 996.9 |
| 20260509075005 | 14 | 100 | 1.6 | 11.3 | 0.08 | 0.79 | 0.61 | 99 | 996.9 |
| 20260509074005 | 13 | 90 | 1.6 | 3.2 | 0.08 | 0.79 | 0.61 | 99 | 996.9 |
| 20260509073004 | 13 | 143 | 1.6 | 11.3 | 0.08 | 0.76 | 0.58 | 98 | 997.0 |
| 20260509072004 | 13 | 80 | 4.8 | 16.1 | 0.13 | 0.76 | 0.58 | 96 | 997.0 |
| 20260509071005 | 13 | 159 | 12.9 | 16.1 | 0.18 | 0.74 | 0.56 | 94 | 997.0 |
| 20260509070005 | 13 | 178 | 8.0 | 16.1 | 0.20 | 0.71 | 0.53 | 96 | 996.9 |
| 20260509065005 | 13 | 126 | 11.3 | 14.5 | 0.25 | 0.71 | 0.53 | 97 | 996.9 |
| 20260509064004 | 13 | 124 | 11.3 | 20.9 | 0.25 | 0.71 | 0.53 | 97 | 996.9 |
| 20260509062005 | 13 | 112 | 14.5 | 20.9 | 0.18 | 0.64 | 0.46 | 96 | 996.9 |
| 20260509061005 | 14 | 123 | 16.1 | 20.9 | 0.10 | 0.56 | 0.38 | 96 | 996.7 |
| 20260509055005 | 14 | 112 | 11.3 | 14.5 | 0.00 | 0.46 | 0.28 | 97 | 996.3 |
| 20260509054005 | 13 | 165 | 3.2 | 14.5 | 0.00 | 0.46 | 0.28 | 98 | 996.3 |
| 20260509053005 | 13 | 64 | 6.4 | 14.5 | 0.00 | 0.46 | 0.28 | 98 | 996.3 |
| 20260509051006 | 13 | 147 | 1.6 | 9.7 | 0.05 | 0.46 | 0.28 | 99 | 996.5 |
| 20260509050005 | 13 | 138 | 4.8 | 11.3 | 0.15 | 0.46 | 0.28 | 99 | 996.6 |
| 20260509045005 | 13 | 172 | 3.2 | 9.7 | 0.15 | 0.46 | 0.28 | 99 | 996.6 |
| 20260509044005 | 13 | 152 | 1.6 | 3.2 | 0.25 | 0.46 | 0.28 | 98 | 996.6 |
| 20260509043006 | 13 | 210 | 0.0 | 9.7 | 0.25 | 0.46 | 0.28 | 98 | 996.8 |
| 20260509042005 | 13 | 69 | 3.2 | 9.7 | 0.25 | 0.46 | 0.28 | 98 | 996.9 |
| 20260509041006 | 13 | 142 | 0.0 | 9.7 | 0.20 | 0.41 | 0.23 | 97 | 997.1 |
| 20260509040006 | 13 | 75 | 4.8 | 12.9 | 0.10 | 0.30 | 0.13 | 94 | 997.3 |
| 20260509035006 | 13 | 129 | 9.7 | 20.9 | 0.10 | 0.30 | 0.13 | 93 | 997.3 |
| 20260509034006 | 14 | 158 | 11.3 | 19.3 | 0.00 | 0.20 | 0.03 | 88 | 997.3 |
| 20260509032005 | 14 | 90 | 9.7 | 14.5 | 0.00 | 0.20 | 0.03 | 88 | 997.5 |
| 20260509031005 | 13 | 97 | 9.7 | 14.5 | 0.00 | 0.20 | 0.03 | 89 | 997.8 |
| 20260509030006 | 13 | 135 | 11.3 | 16.1 | 0.00 | 0.20 | 0.03 | 89 | 997.9 |
| 20260509025005 | 13 | 111 | 4.8 | 11.3 | 0.00 | 0.20 | 0.03 | 89 | 997.9 |
| 20260509024006 | 13 | 113 | 6.4 | 12.9 | 0.00 | 0.20 | 0.03 | 88 | 997.9 |
| 20260509023005 | 13 | 81 | 6.4 | 12.9 | 0.00 | 0.20 | 0.03 | 88 | 997.8 |
| 20260509021005 | 13 | 128 | 6.4 | 9.7 | 0.00 | 0.20 | 0.03 | 87 | 998.3 |
| 20260509020005 | 13 | 332 | 0.0 | 0.0 | 0.00 | 0.20 | 0.03 | 86 | 998.6 |
| 20260509015006 | 13 | 174 | 1.6 | 11.3 | 0.00 | 0.20 | 0.03 | 84 | 998.7 |
| 20260509014005 | 14 | 184 | 1.6 | 11.3 | 0.00 | 0.20 | 0.03 | 84 | 998.7 |
| 20260509013005 | 14 | 212 | 8.0 | 9.7 | 0.00 | 0.20 | 0.03 | 83 | 999.0 |
| 20260509012005 | 14 | 183 | 6.4 | 9.7 | 0.03 | 0.20 | 0.03 | 83 | 999.0 |
| 20260509011006 | 14 | 167 | 8.0 | 14.5 | 0.03 | 0.20 | 0.03 | 82 | 999.1 |
| 20260509010006 | 14 | 167 | 9.7 | 16.1 | 0.03 | 0.20 | 0.03 | 83 | 999.1 |
| 20260509005005 | 14 | 173 | 8.0 | 16.1 | 0.03 | 0.20 | 0.03 | 83 | 998.9 |
| 20260509004005 | 14 | 128 | 14.5 | 22.5 | 0.03 | 0.20 | 0.03 | 84 | 998.9 |
| 20260509003006 | 14 | 168 | 11.3 | 14.5 | 0.03 | 0.20 | 0.03 | 86 | 998.9 |
| 20260509001006 | 14 | 147 | 9.7 | 14.5 | 0.00 | 0.18 | 0.00 | 84 | 999.1 |
| 20260509000005 | 15 | 147 | 9.7 | 14.5 | 0.00 | 0.18 | 0.00 | 84 | 999.3 |
| 20260508235005 | 15 | 158 | 9.7 | 16.1 | 0.00 | 0.18 | 0.00 | 84 | 999.2 |
| 20260508234006 | 15 | 147 | 9.7 | 24.1 | 0.00 | 0.18 | 0.00 | 84 | 999.2 |
| 20260508232006 | 15 | 146 | 14.5 | 25.7 | 0.00 | 0.18 | 0.00 | 85 | 999.3 |
| 20260508231005 | 15 | 189 | 14.5 | 22.5 | 0.00 | 0.18 | 0.00 | 85 | 999.3 |
| 20260508230006 | 15 | 164 | 9.7 | 22.5 | 0.00 | 0.18 | 0.00 | 86 | 999.3 |
| 20260508224005 | 14 | 170 | 8.0 | 14.5 | 0.00 | 0.18 | 0.18 | 87 | 999.0 |
| 20260508223005 | 14 | 112 | 14.5 | 16.1 | 0.03 | 0.18 | 0.18 | 87 | 998.9 |
| 20260508222005 | 14 | 118 | 9.7 | 20.9 | 0.05 | 0.18 | 0.18 | 90 | 998.8 |
| 20260508221006 | 14 | 151 | 11.3 | 24.1 | 0.08 | 0.18 | 0.18 | 86 | 998.5 |
| 20260508220005 | 14 | 135 | 16.1 | 27.4 | 0.10 | 0.18 | 0.18 | 90 | 998.5 |
| 20260508215005 | 14 | 21 | 14.5 | 22.5 | 0.13 | 0.18 | 0.18 | 92 | 999.1 |
| 20260508214005 | 14 | 98 | 19.3 | 24.1 | 0.15 | 0.18 | 0.18 | 93 | 999.2 |
| 20260508212005 | 15 | 176 | 11.3 | 16.1 | 0.13 | 0.13 | 0.13 | 92 | 1000.3 |
| 20260508211005 | 15 | 145 | 11.3 | 16.1 | 0.10 | 0.10 | 0.10 | 93 | 1000.5 |
| 20260508210005 | 15 | 174 | 11.3 | 19.3 | 0.08 | 0.08 | 0.08 | 91 | 1000.3 |
| 20260508205005 | 15 | 132 | 3.2 | 9.7 | 0.05 | 0.05 | 0.05 | 93 | 1000.2 |
| 20260508204005 | 15 | 182 | 3.2 | 8.0 | 0.03 | 0.03 | 0.03 | 93 | 1000.2 |
| 20260508203005 | 15 | 176 | 0.0 | 3.2 | 0.03 | 0.03 | 0.03 | 92 | 1000.0 |
| 20260508202006 | 15 | 202 | 0.0 | 11.3 | 0.00 | 0.00 | 0.00 | 90 | 999.8 |
| 20260508201005 | 15 | 183 | 0.0 | 0.0 | 0.00 | 0.00 | 0.00 | 88 | 999.8 |
| 20260508200005 | 15 | 181 | 0.0 | 11.3 | 0.00 | 0.00 | 0.00 | 88 | 999.7 |
| 20260508195005 | 15 | 182 | 9.7 | 12.9 | 0.00 | 0.00 | 0.00 | 86 | 999.9 |
| 20260508194005 | 16 | 179 | 9.7 | 19.3 | 0.00 | 0.00 | 0.00 | 84 | 1000.0 |
| 20260508193005 | 16 | 171 | 9.7 | 19.3 | 0.00 | 0.00 | 0.00 | 83 | 1000.0 |
| 20260508192005 | 16 | 240 | 11.3 | 22.5 | 0.00 | 0.00 | 0.00 | 80 | 999.8 |
| 20260508190005 | 18 | 200 | 16.1 | 22.5 | 0.00 | 0.00 | 0.00 | 64 | 998.9 |
| 20260508185005 | 18 | 242 | 14.5 | 16.1 | 0.00 | 0.00 | 0.00 | 60 | 998.9 |
| 20260508184005 | 19 | 211 | 8.0 | 11.3 | 0.00 | 0.00 | 0.00 | 55 | 998.9 |
| 20260508183005 | 20 | 161 | 4.8 | 11.3 | 0.00 | 0.00 | 0.00 | 54 | 999.0 |
| 20260508182005 | 20 | 211 | 1.6 | 11.3 | 0.00 | 0.00 | 0.00 | 53 | 998.8 |
| 20260508181005 | 20 | 205 | 6.4 | 12.9 | 0.00 | 0.00 | 0.00 | 53 | 999.0 |
| 20260508175005 | 20 | 180 | 9.7 | 16.1 | 0.00 | 0.00 | 0.00 | 53 | 999.1 |
| 20260508174006 | 20 | 230 | 9.7 | 14.5 | 0.00 | 0.00 | 0.00 | 53 | 999.1 |
| 20260508173005 | 20 | 222 | 8.0 | 14.5 | 0.00 | 0.00 | 0.00 | 50 | 999.2 |
| 20260508172005 | 21 | 202 | 11.3 | 14.5 | 0.00 | 0.00 | 0.00 | 47 | 999.3 |
| 20260508171005 | 21 | 202 | 9.7 | 14.5 | 0.00 | 0.00 | 0.00 | 47 | 999.2 |
| 20260508170005 | 21 | 180 | 12.9 | 16.1 | 0.00 | 0.00 | 0.00 | 46 | 999.3 |
| 20260508164006 | 21 | 217 | 12.9 | 19.3 | 0.00 | 0.00 | 0.00 | 45 | 999.2 |
| 20260508163005 | 21 | 135 | 9.7 | 14.5 | 0.00 | 0.00 | 0.00 | 46 | 999.3 |
| 20260508162005 | 21 | 209 | 6.4 | 14.5 | 0.00 | 0.00 | 0.00 | 44 | 999.5 |
| 20260508161005 | 22 | 256 | 3.2 | 11.3 | 0.00 | 0.00 | 0.00 | 42 | 999.6 |
| 20260508160005 | 22 | 283 | 4.8 | 11.3 | 0.00 | 0.00 | 0.00 | 41 | 999.5 |
| 20260508155005 | 22 | 199 | 9.7 | 16.1 | 0.00 | 0.00 | 0.00 | 41 | 999.6 |
| 20260508153006 | 23 | 239 | 12.9 | 14.5 | 0.00 | 0.00 | 0.00 | 38 | 999.8 |
| 20260508152005 | 22 | 207 | 11.3 | 16.1 | 0.00 | 0.00 | 0.00 | 40 | 999.9 |
| 20260508151005 | 22 | 202 | 11.3 | 16.1 | 0.00 | 0.00 | 0.00 | 40 | 1000.2 |
| 20260508150005 | 22 | 242 | 8.0 | 19.3 | 0.00 | 0.00 | 0.00 | 39 | 1000.3 |
| 20260508145006 | 23 | 211 | 12.9 | 16.1 | 0.00 | 0.00 | 0.00 | 37 | 1000.6 |
| 20260508144005 | 23 | 219 | 11.3 | 19.3 | 0.00 | 0.00 | 0.00 | 37 | 1000.7 |
| 20260508143005 | 22 | 229 | 9.7 | 12.9 | 0.00 | 0.00 | 0.00 | 38 | 1000.8 |
| 20260508142005 | 22 | 220 | 11.3 | 19.3 | 0.00 | 0.00 | 0.00 | 38 | 1000.8 |
| 20260508141006 | 23 | 205 | 11.3 | 16.1 | 0.00 | 0.00 | 0.00 | 37 | 1000.8 |
| 20260508140005 | 25 | 180 | 9.7 | 16.1 | 0.00 | 0.00 | 0.00 | 34 | 1001.0 |
| 20260508135005 | 24 | 173 | 11.3 | 14.5 | 0.00 | 0.00 | 0.00 | 34 | 1001.1 |
| 20260508134005 | 24 | 215 | 11.3 | 16.1 | 0.00 | 0.00 | 0.00 | 35 | 1001.2 |
| 20260508133005 | 22 | 154 | 9.7 | 20.9 | 0.00 | 0.00 | 0.00 | 37 | 1001.3 |
| 20260508132005 | 22 | 202 | 12.9 | 20.9 | 0.00 | 0.00 | 0.00 | 40 | 1001.6 |
| 20260508131005 | 23 | 99 | 8.0 | 14.5 | 0.00 | 0.00 | 0.00 | 37 | 1001.8 |
| 20260508130005 | 21 | 180 | 16.1 | 20.9 | 0.00 | 0.00 | 0.00 | 43 | 1001.9 |
| 20260508125006 | 21 | 180 | 8.0 | 14.5 | 0.00 | 0.00 | 0.00 | 44 | 1001.9 |
| 20260508124006 | 23 | 215 | 11.3 | 12.9 | 0.00 | 0.00 | 0.00 | 39 | 1002.0 |
| 20260508122005 | 20 | 193 | 8.0 | 16.1 | 0.00 | 0.00 | 0.00 | 46 | 1002.3 |
| 20260508121005 | 20 | 214 | 14.5 | 22.5 | 0.00 | 0.00 | 0.00 | 44 | 1002.3 |
| 20260508120005 | 22 | 180 | 8.0 | 16.1 | 0.00 | 0.00 | 0.00 | 40 | 1002.5 |
| 20260508115005 | 22 | 183 | 8.0 | 20.9 | 0.00 | 0.00 | 0.00 | 39 | 1002.6 |
| 20260508114005 | 22 | 144 | 8.0 | 14.5 | 0.00 | 0.00 | 0.00 | 40 | 1002.7 |
| 20260508113006 | 21 | 255 | 6.4 | 14.5 | 0.00 | 0.00 | 0.00 | 44 | 1002.9 |
| 20260508111005 | 21 | 209 | 11.3 | 19.3 | 0.00 | 0.00 | 0.00 | 42 | 1003.0 |
| 20260508110005 | 22 | 182 | 11.3 | 16.1 | 0.00 | 0.00 | 0.00 | 41 | 1003.2 |
| 20260508104005 | 22 | 229 | 11.3 | 19.3 | 0.00 | 0.00 | 0.00 | 42 | 1003.3 |
| 20260508103005 | 22 | 182 | 12.9 | 19.3 | 0.00 | 0.00 | 0.00 | 42 | 1003.3 |
| 20260508102005 | 21 | 224 | 9.7 | 16.1 | 0.00 | 0.00 | 0.00 | 43 | 1003.5 |